Regional Weather Roundup
Issued by NWS

Home | Current Version | Previous Version | Text Only | Print | Product List | Glossary On
Versions: 1 2 3 4 5 6 7 8 9 10 11 12 13 14 15 16 17 18 19 20 21 22 23 24 25 26 27 28
000
ASCA42 TJSJ 241810
RWRPR
PUERTO RICO/U.S. VIRGIN ISLANDS HOURLY WEATHER ROUNDUP
NATIONAL WEATHER SERVICE SAN JUAN PR
200 PM AST SUN JUL 24 2016

PRZ001-004-241900-
PUERTO RICO

CITY           SKY/WX    TMP DP  RH WIND       PRES   REMARKS
SAN JUAN LMM   MOSUNNY   88  72  58 E20G25    30.01S HX  94
AGUADILLA      SUNNY     88  75  66 E8        30.00F HX  97
CEIBA          MOSUNNY   88  77  70 NE10      30.04S HX 100
$$

PRZ006-007-241900-
U.S. VIRGIN ISLANDS

CITY           SKY/WX    TMP DP  RH WIND       PRES   REMARKS
CHRISTIANSTED  MOSUNNY   88  75  66 E17       30.02S HX  97
$$

HOURLY WEATHER ROUNDUP FOR THE NEWS MEDIA

CITY           SKY/WX    TMP DP  RH WIND       PRES   REMARKS
ORLANDO        PTSUNNY   91  68  46 VRB3      30.04F HX  95
NEW YORK       PTSUNNY   86  61  42 S14       29.98S
NEWARK         PTSUNNY   94  56  27 W10G18    29.96S HX  92
CHICAGO        PTSUNNY   89  78  70 S16G23    29.88S HX 103
HARTFORD       CLOUDY    86  62  44 W13G18    29.93S
BOSTON         MOSUNNY   88  57  34 W10       29.92S
DALLAS         MOSUNNY   96  71  44 VRB3      29.96F HX 103
PHILADELPHIA   PTSUNNY   92  59  33 S10       29.99F HX  91
LOS ANGELES    MOSUNNY   81  64  56 SE7       29.93R
WASHINGTON DC  PTSUNNY   95  63  34 SW8       30.00F HX  96



USA.gov is the U.S. government's official web portal to all federal, state and local government web resources and services.